Погода в Мариуполе

Погода в Мариуполе : погода сейчас, прогноз погоды и архив. Всё, что Вы хотите узнать о погоде в Мариуполе!

Поиск расширенной информации на нашем сайте:

Другие новости

Новости СМИ2

Главная страница сайта

Новости сайта

02.10.2013

Напоминаем, что на нашем новом сайте вы можете получить высокодетализированные прогнозы погоды по пунктам России, СНГ и мира (включающие важные для авиации метеовеличины, такие как направление и скорость ветра, видимость, явления погоды, количество и форма облачности, нижняя и верхняя граница облачности), а также ознакомиться с разнообразными материалами по авиационной метеорологии и подборкой полезных ссылок на эту тему.

Сайт Метеоцентр.Азия посвящён разработке технологий оптимизации авиаметеорологического обслуживания, включая проектирование и перспективное создание нескольких автоматизированных авиаметеорологических систем:
- система выпуска высокодетальных прогностических карт явлений погоды для нижнего воздушного пространства по России и ближнему зарубежью;
- система верификации прогнозов TAF (выпускаемых синоптиками официальных АМСГ РФ и ближнего зарубежья) и AUTOTAF (выпускаемых сайтом Метеоцентр.Азия) - выявление ошибок, онлайн-сопоставление с фактической погодой METAR, автоматическое внесение коррективов в прогнозы при резком отклонении фактической погоды от прогноза, подсчёт оправдываемости прогнозов по элементам и в целом;
- система обработки, анализа и отображения авиаметеорологической информации для применения провайдерами метеорологической информации.

Рекомендуем: Деревянные окна

Погода в Мариуполе - сегодня

Время (UTC), дата Ветер
(°,м/с) 
Видим.   Явления Облачность Т
(°С)
Тd
(°С)
f(%) Тe
(°С)
Pmin
(гПа)
dP
(гПа)
Po
(мм)
O2
(г/м3)
Тmin Tmax R s Состояние
почвы
03 22.07.16 290 (З) 10 км    ясно 
+16 +10.7 71 +18  1011.6  -0.2  753  284           
06 22.07.16 270 (З) 20000 м    3/0 средняя 
[Ac trans]
+23.2 +6.1 33 +23  1011.6  0.2  753  279  +14.4         
09 22.07.16 230 (ЮЗ) 20000 м    8/4 600 м средняя 
[Cu hum|Ac As]
+24.7 +6.9 32 +25  1011.3  -0.3  752  277           
12 22.07.16 230 (ЮЗ) 20000 м  в посл. час ливневой дождь  9/6 600 м кучево-дожд., средняя 
[Cb cap|Ac As]
+20.3 +18.5 89 +36  1011.4  752  278         
15 22.07.16 250 (З) 20000 м    8/6 930 м средняя 
[Cu hum|Ac trans]
+24.9 +7.5 33 +25  1010.3  -1  752  276           
18 22.07.16 290 (З) 10 км    5/5 1000 м 
[Cu hum]
+23 +13.3 54 +29  1010.3  752  277    +27.5     
21 22.07.16 290 (З) 20000 м  зарница  8/4 1000 м кучево-дожд., средняя 
[Cb cap|Ac As]
+20 +10.4 54 +22  1010.7  0.3  752  280           
00 23.07.16 320 (СЗ) 20000 м    9/6 800 м средняя 
[Cu hum|Ac As]
+17.2 +10.2 63 +19  1011.5  0.7  752  283           
03 23.07.16 320 (СЗ) 10 км    3/0 средняя 
[Ac trans]
+15.2 +11.9 81 +19  1011.3  -0.2  752  285           
06 23.07.16 320 (СЗ) 10 км    3/3 600 м 
[Cu hum]
+20.1 +9.4 50 +20  1011.1  -0.1  752  281  +15.2         
09 23.07.16 300 (СЗ) 20000 м    6/6 870 м 
[Cu hum]
+24.2 +2.6 24 +24  1010.6  -0.4  752  278           
12 23.07.16 290 (З) 20000 м    9/9 660 м кучево-дожд. 
[Cb cap]
+25.8 -0.1 18 +26  1010.1  -0.5  752  277           
15 23.07.16 250 (З) 20000 м    9/8 570 м кучево-дожд., верхняя 
[Cb cap|Cc]
+24.6 +13.5 50 +31  1008.8  -1.3  751  275           
18 23.07.16 270 (З) 10 км    10/10 540 м кучево-дожд. 
[Cb cap]
+24.7 +5.1 28 +25  1008.8  751  277    +28.7       
21 23.07.16 270 (З) 20000 м    9/9 750 м 
[Sc]
+22 +6.2 36 +22  1007.5  -1.3  750  279           
00 24.07.16 260 (З) 20000 м    10/10 660 м кучево-дожд. 
[Cb cap]
+19.2 +8.2 49 +20  1006.4  -1.2  749  280           
03 24.07.16 320 (СЗ) 10 км    5/3 600 м средняя 
[Sc diur, vesp|Ac trans]
+18.7 +10.3 58 +21  1006.4  749  280           
06 24.07.16 320 (СЗ) 20000 м    4/4 600 м 
[Cu med, cong]
+20.7 +12.4 59 +25  1006.7  0.3  749  278  +18.6         
09 24.07.16 320 (СЗ) 20000 м    9/9 720 м 
[Sc]
+24.3 +13.3 50 +30  1006.5  -0.1  749  274           
12 24.07.16 340 (С) 20000 м  {ливн. осадки}  8/8 660 м кучево-дожд. 
[Cb cap]
+25.3 +14 50 +32  1006.8  0.4  749  273      0.0     
15 24.07.16 320 (СЗ) 20000 м  в посл. час ливневой дождь  9/8 660 м кучево-дожд., средняя 
[Cb cap|Ac As]
+21.7 +18.5 82 +37  1007.7  0.8  750  276           
18 24.07.16 320 (СЗ) 10 км  {ливн. осадки}  3/0 верхняя 
[Cs]
+20.1 +17 82 +32  1009.2  1.4  751  278    +27  0.0     
21 24.07.16 340 (С) 20000 м    3/0 верхняя 
[Cs]
+18.5 +17.2 92 +32  1009.4  0.2  751  280           
00 25.07.16 340 (С) 20000 м    4/0 верхняя 
[Cs]
+17 +16.3 96 +28  1010.4  0.9  752  282           
03 25.07.16 340 (С) 10 км    ясно 
+16.7 +15.3 91 +26  1011  0.6  752  282           
Время (UTC), дата Ветер
(°,м/с) 
Видим.   Явления Облачность Т
(°С)
Тd
(°С)
f(%) Тe
(°С)
Pmin
(гПа)
dP
(гПа)
Po
(мм)
O2
(г/м3)
Тmin Tmax R s Состояние
почвы

Для получения пояснительной информации подведите курсор к названию столбца.

ПОГОДА в Мариуполе - архив

Всё, что Вы хотите узнать о погоде в Мариуполе - удобно и подробно!

Выберите нужную дату (начиная с 1 января 2015* года) и нажмите кнопку "Найти".
Будут отображены архивные сводки погоды по пункту Мариуполь, начиная с указанной даты.


Отображать данные в формате CSV (для использования в таблицах Excel)


Внимание! Наш архив погоды предназначен исключительно для личного некоммерческого использования в познавательных целях. Если Вам необходимы официальные справки о состоянии погоды (для производственных, юридических, коммерческих и т.п. целей), обращайтесь в органы Росгидромета.

*Примечание: данная дата относится к архиву по метеостанциям СССР (Россия, СНГ, Балтия).
Архив по метеостанциям Зарубежной Европы и Азии (кроме Китая) хранится 10 дней, по другим регионам земного шара (Китай, Африка, Америка, Австралия, Океания) - 1 день.

Мариуполь - район местоположения метеостанции


Название, широта, долгота, высота метеостанции:
Мариуполь (город) 47°ш. 37.5°д. 70 м над ур. моря [Украина]

Дополнительная информация

В oтличие oт бoльшинства пoгoдных сайтoв мы публикуем пoдрoбную метеoинфoрмацию в детальнoм прoфессиoнальнoм фoрмате.

Характеристики температуры и влажнoсти вoздуха измеряются на высoте 2 м в тени вдали oт зданий и деревьев.
Скoрoсть ветра измеряется на высoте 10 м (на урoвне рoста челoвека скoрoсть ветра ниже в 1.5-2 раза). Если метеoстанция нахoдится в гoрoде или в лесу, тo скoрoсть ветра занижена на 2-4 м/с пo сравнению с oткрытым местoм. Скoрoсть ветра над акватoриями крупных рек и oзёр, а также на вершинах хoлмoв на 2-5 м/с выше, чем в oбычных услoвиях.
Атмoсфернoе давление в разных тoчках местнoсти мoжет значительнo oтличаться oт давления на метеoстанции, в зависимoсти oт услoвий рельефа (при пoдъёме на 10 м давление пoнижается примернo на 1 мм рт.ст.).